Location: Valdosta
(30.8330°N, 83.2790°W)
Time: 05:14:53
(UTC-05:00)

Amateur Radio Satellites - All Passes

Search period start: 04 December 2016 04:44
Search period end: 05 December 2016 04:44
Location: Valdosta, 30.8330°N, 83.2790°W

Satellite Date Start Highest point End Downlink Frequencies (MHz)
Time Altitude Azimuth
KKS-1 04 Dec 04:45:03 04:49:00 31° 262° (W) 04:52:59 437.445
STARS 04 Dec 04:57:11 05:01:29 52° 260° (W) 05:05:49 437.465
BEESAT 2 04 Dec 05:00:16 05:00:53 10° 107° (ESE) 05:01:29 435.950
PHONESAT 2.4 04 Dec 05:02:30 05:03:45 12° 9° (N) 05:05:01 2401.200-2431.200
ITAMSAT 1 04 Dec 05:16:15 05:17:14 10° 296° (WNW) 05:18:12 435.822/435.867
CUBESAT XI-V 04 Dec 05:30:43 05:34:51 33° 262° (W) 05:39:01 437.345
AO-7 04 Dec 05:50:01 05:56:26 25° 299° (WNW) 06:02:52 29.400- 29.500
GOMX 1 04 Dec 05:53:02 05:58:16 44° 98° (E) 06:03:26 467.674
HORYU 2 04 Dec 05:55:28 05:59:54 88° 95° (E) 06:04:19 437.375
YUBILEINY 04 Dec 05:57:56 06:05:15 28° 75° (ENE) 06:12:31 435.215
BRITE-PL 04 Dec 06:04:59 06:10:21 59° 284° (WNW) 06:15:55 437.365/2234.400
BEESAT 3 04 Dec 06:10:31 06:14:04 34° 302° (WNW) 06:17:39 437.485
DOVE 4 04 Dec 06:15:51 06:20:25 29° 96° (E) 06:24:51 437.250
Cosmos 2491 04 Dec 06:19:10 06:25:40 24° 84° (E) 06:32:07 435.465 / 435.565
NOAA 18 04 Dec 06:20:17 06:24:37 23° 97° (E) 06:28:56 137.9125
LilacSat-2 04 Dec 06:23:28 06:27:05 45° 99° (E) 06:30:41 437.200
CUTE-I 04 Dec 06:29:50 06:34:59 49° 100° (E) 06:40:06 437.470
SO-50 04 Dec 06:30:39 06:35:09 89° 235° (SW) 06:39:35 436.795
BEESAT 2 04 Dec 06:34:28 06:38:12 42° 300° (WNW) 06:41:59 435.950
STRAND 1 04 Dec 06:34:31 06:39:05 33° 71° (ENE) 06:43:40 437.568
PHONESAT 2.4 04 Dec 06:36:55 06:39:27 41° 25° (NNE) 06:41:59 2401.200-2431.200
Cosmos 2504 04 Dec 06:37:30 06:44:10 24° 72° (ENE) 06:50:30 435.465 / 435.565
HO-68 04 Dec 06:49:18 06:52:17 13° 93° (E) 06:55:15 435.675
Cubesat XI-IV 04 Dec 06:54:53 07:00:15 88° 106° (ESE) 07:05:34 437.490
RS-15 04 Dec 06:56:34 07:07:00 41° 106° (ESE) 07:17:53 29.354- 29.394
NOAA 15 04 Dec 07:00:03 07:05:19 72° 285° (WNW) 07:10:34 137.62
CANX-2 04 Dec 07:18:58 07:21:52 18° 95° (E) 07:24:47 2200.000
GOMX 1 04 Dec 07:32:04 07:35:54 20° 291° (WNW) 07:39:46 467.674
SEEDS 04 Dec 07:48:43 07:52:05 23° 96° (E) 07:55:25 437.485
CINEMA 3 04 Dec 07:50:32 07:55:19 72° 101° (E) 07:59:52 145.822/145.860
DOVE 4 04 Dec 07:53:33 07:57:53 26° 290° (WNW) 08:02:07 437.250
YUBILEINY 04 Dec 07:53:48 08:02:12 51° 270° (W) 08:10:38 435.215
NOAA 18 04 Dec 08:00:17 08:05:15 35° 290° (WNW) 08:10:12 137.9125
AIST 1 04 Dec 08:03:22 08:07:43 59° 266° (W) 08:12:01
COMPASS 1 04 Dec 08:03:30 08:06:47 22° 96° (E) 08:10:04 437.405
CUTE-I 04 Dec 08:11:21 08:14:34 16° 294° (WNW) 08:17:45 437.470
PHONESAT 2.4 04 Dec 08:12:46 08:14:33 16° 217° (SW) 08:16:20 2401.200-2431.200
Cosmos 2491 04 Dec 08:13:09 08:21:46 59° 279° (W) 08:30:23 435.465 / 435.565
STRAND 1 04 Dec 08:14:20 08:18:13 22° 264° (W) 08:22:08 437.568
ZACube-1 04 Dec 08:23:26 08:24:25 11° 93° (E) 08:25:23 437.345
CUBEBUG 2 04 Dec 08:23:46 08:27:48 35° 98° (E) 08:31:40 437.445
Cosmos 2504 04 Dec 08:29:28 08:38:01 60° 269° (W) 08:46:03 435.465 / 435.565
FUNcube-1 04 Dec 08:31:35 08:33:28 13° 93° (E) 08:35:20 145.935
HO-68 04 Dec 08:33:20 08:40:33 84° 287° (WNW) 08:47:46 435.675
CUTE 1.7 + AOD 2 04 Dec 08:36:06 08:40:12 52° 284° (WNW) 08:44:17 437.475
AIST 2 04 Dec 08:41:50 08:45:54 87° 294° (WNW) 08:50:03 435.215
CANX-2 04 Dec 08:54:07 08:57:39 26° 287° (WNW) 09:01:10 2200.000
Oscar 11 04 Dec 09:03:20 09:07:14 33° 98° (E) 09:11:06 145.826/435.025
RS-15 04 Dec 09:07:54 09:19:06 51° 305° (NW) 09:30:55 29.354- 29.394
AAUSAT CUBESAT 2 04 Dec 09:10:12 09:14:18 63° 283° (WNW) 09:18:23 437.432
UWE-3 04 Dec 09:10:38 09:14:56 86° 100° (E) 09:19:07 435.000/436.395/437.385
UNISAT 6 04 Dec 09:14:47 09:18:24 22° 71° (ENE) 09:22:00 437.425
PRISM 04 Dec 09:21:09 09:25:06 52° 259° (W) 09:29:05 437.425
SEEDS 04 Dec 09:24:29 09:27:36 20° 289° (WNW) 09:30:42 437.485
COMPASS 1 04 Dec 09:39:03 09:42:10 21° 289° (WNW) 09:45:17 437.405
TIGRISAT 04 Dec 09:44:28 09:48:57 45° 74° (ENE) 09:53:24 435.000
ANTELSAT 04 Dec 09:45:18 09:49:50 49° 75° (ENE) 09:54:21 437.575/2403.000
JAS-2 04 Dec 09:53:36 09:57:09 15° 67° (ENE) 10:00:32 435.910
ZACube-1 04 Dec 09:56:53 10:00:52 42° 285° (WNW) 10:04:47 437.345
CUBEBUG 2 04 Dec 10:01:38 10:04:02 15° 292° (WNW) 10:06:23 437.445
FUNcube-1 04 Dec 10:05:58 10:09:48 35° 286° (WNW) 10:13:34 145.935
HUMSAT D 04 Dec 10:07:51 10:11:29 31° 98° (E) 10:15:07 437.325/437.525
HO-68 04 Dec 10:24:34 10:27:11 12° 301° (WNW) 10:29:47 435.675
QB50P2 04 Dec 10:25:12 10:27:10 13° 68° (ENE) 10:29:08 145.880/145.840
POLYITAN 1 04 Dec 10:25:59 10:27:47 12° 68° (ENE) 10:29:34 437.675
CUSAT 1 04 Dec 10:26:32 10:29:59 33° 277° (W) 10:32:49 437.405
DELFI C3 04 Dec 10:27:29 10:31:24 60° 284° (WNW) 10:35:20 145.870
QB50P1 04 Dec 10:38:33 10:41:25 18° 70° (ENE) 10:44:17 145.935-145.965
Oscar 11 04 Dec 10:40:29 10:43:02 16° 291° (WNW) 10:45:36 145.826/435.025
DUCHIFAT 1 04 Dec 10:43:50 10:46:37 17° 70° (ENE) 10:49:25 145.980
ESTCUBE 1 04 Dec 10:49:21 10:50:50 11° 93° (E) 10:52:19 437.505/2401.250
DANDE 04 Dec 10:49:27 10:55:06 85° 98° (E) 10:59:16 436.750
UNISAT 6 04 Dec 10:50:52 10:54:53 28° 263° (W) 10:58:54 437.425
POPSAT HIP 1 04 Dec 10:58:51 11:02:35 30° 73° (ENE) 11:06:21 437.405
PCSat 04 Dec 10:59:17 11:03:15 21° 106° (ESE) 11:07:14 145.827
JUGNU 04 Dec 11:01:47 11:05:09 15° 164° (SSE) 11:08:30 437.505
TIGRISAT 04 Dec 11:23:29 11:25:44 13° 266° (W) 11:28:01 435.000
ANTELSAT 04 Dec 11:24:50 11:26:41 12° 267° (W) 11:28:33 437.575/2403.000
RS-15 04 Dec 11:29:56 11:35:36 14° 333° (NNW) 11:41:21 29.354- 29.394
CUBEBUG 1 04 Dec 11:34:26 11:38:02 24° 97° (E) 11:41:37 437.445
JAS-2 04 Dec 11:34:53 11:41:47 69° 258° (WSW) 11:47:52 435.910
Cosmos 2499 04 Dec 11:35:56 11:43:10 30° 74° (ENE) 11:49:55 435.465 / 435.565
VELOX 1 04 Dec 11:40:22 11:43:25 18° 96° (E) 11:46:27 145.980
HUMSAT D 04 Dec 11:44:34 11:46:47 14° 291° (WNW) 11:49:00 437.325/437.525
BUGSAT 1 04 Dec 11:47:57 11:51:48 36° 73° (ENE) 11:55:42 437.445
NANOSAT C BR1 04 Dec 11:54:31 11:58:40 53° 260° (W) 12:02:52 145.865
QB50P2 04 Dec 11:58:32 12:02:33 40° 261° (W) 12:06:36 145.880/145.840
POLYITAN 1 04 Dec 11:59:04 12:03:08 42° 261° (W) 12:07:13 437.675
DX 1 04 Dec 12:00:54 12:03:29 15° 95° (E) 12:06:04 434.975-435.025
UKube-1 04 Dec 12:12:09 12:14:38 15° 95° (E) 12:17:04 .
QB50P1 04 Dec 12:13:12 12:16:55 29° 262° (W) 12:20:39 145.935-145.965
AO-85 04 Dec 12:14:07 12:18:00 68° 62° (ENE) 12:21:51 145.980
DUCHIFAT 1 04 Dec 12:18:19 12:22:02 29° 262° (W) 12:25:46 145.980
ESTCUBE 1 04 Dec 12:23:28 12:27:48 47° 285° (WNW) 12:32:07 437.505/2401.250
50 SAT 04 Dec 12:26:11 12:29:41 56° 101° (E) 12:33:11 437.505
Gurwin Techsat 1B 04 Dec 12:26:44 12:28:05 11° 64° (ENE) 12:29:24 435.225
SPROUT 04 Dec 12:27:41 12:31:46 42° 99° (E) 12:35:49 437.525
GONETS M04 04 Dec 12:30:22 12:39:02 67° 82° (E) 12:47:42
POPSAT HIP 1 04 Dec 12:35:39 12:38:21 16° 265° (W) 12:41:04 437.405
AISAT 04 Dec 12:38:24 12:42:53 81° 285° (WNW) 12:47:21 437.250
PCSat 04 Dec 12:41:17 12:46:18 39° 299° (WNW) 12:51:21 145.827
Oscar 19 04 Dec 12:42:58 12:47:34 35° 72° (ENE) 12:52:11 437.125/150
JUGNU 04 Dec 12:48:47 12:53:36 25° 173° (S) 12:58:25 437.505
CUBEBUG 1 04 Dec 13:10:41 13:14:08 23° 289° (WNW) 13:17:35 437.445
VELOX 1 04 Dec 13:15:56 13:19:50 30° 288° (WNW) 13:23:44 145.980
BUGSAT 1 04 Dec 13:25:13 13:27:15 13° 266° (W) 13:29:17 437.445
Cosmos 2499 04 Dec 13:28:27 13:36:24 46° 271° (W) 13:43:48 435.465 / 435.565
DX 1 04 Dec 13:35:44 13:39:42 34° 287° (WNW) 13:43:39 434.975-435.025
UKube-1 04 Dec 13:46:46 13:50:41 34° 287° (WNW) 13:54:36 .
TISAT 1 04 Dec 13:56:27 14:00:40 73° 102° (ESE) 14:04:50 437.305
M-CUBED/EXP-1 PRIME 04 Dec 13:58:55 14:01:08 13° 97° (E) 14:03:18 437.505
Gurwin Techsat 1B 04 Dec 14:02:02 14:07:19 73° 258° (WSW) 14:12:39 435.225
SPROUT 04 Dec 14:05:32 14:07:15 12° 292° (WNW) 14:08:59 437.525
Oscar 19 04 Dec 14:23:09 14:26:53 20° 264° (W) 14:30:39 437.125/150
SRMSAT 04 Dec 14:24:17 14:28:35 21° 168° (SSE) 14:32:52 437.500
GONETS M04 04 Dec 14:29:10 14:34:58 20° 277° (W) 14:40:48
SWISSCUBE 04 Dec 14:30:47 14:35:00 32° 98° (E) 14:39:13 437.505
BEESAT 3 04 Dec 14:32:36 14:35:47 22° 56° (NE) 14:38:56 437.485
BEESAT 04 Dec 14:35:03 14:39:16 31° 98° (E) 14:43:28 436.000
JUGNU 04 Dec 14:37:09 14:42:08 28° 183° (S) 14:47:06 437.505
ITAMSAT 1 04 Dec 14:45:39 14:50:48 64° 75° (ENE) 14:55:58 435.822/435.867
AO-7 04 Dec 14:48:56 14:56:51 52° 68° (ENE) 15:04:48 29.400- 29.500
BEESAT 2 04 Dec 14:57:49 15:00:46 19° 55° (NE) 15:03:41 435.950
ITUPSAT 1 04 Dec 15:01:01 15:05:44 62° 101° (ESE) 15:10:26 437.325
AUBIESAT-1 04 Dec 15:20:34 15:25:08 78° 288° (WNW) 15:29:29 437.475
O/OREOS (USA 219) 04 Dec 15:30:05 15:32:52 16° 100° (E) 15:35:37 437.305
M-CUBED/EXP-1 PRIME 04 Dec 15:31:18 15:35:45 46° 291° (WNW) 15:40:02 437.505
MOZHAYETS 4 04 Dec 15:57:16 16:01:47 60° 101° (E) 16:06:16
RS-15 04 Dec 16:04:46 16:15:23 32° 47° (NE) 16:25:39 29.354- 29.394
SWISSCUBE 04 Dec 16:09:07 16:12:32 20° 291° (WNW) 16:15:56 437.505
BEESAT 3 04 Dec 16:10:12 16:13:15 21° 250° (WSW) 16:16:18 437.485
SRMSAT 04 Dec 16:12:16 16:17:13 28° 178° (S) 16:22:10 437.500
BEESAT 04 Dec 16:13:21 16:16:47 20° 291° (WNW) 16:20:13 436.000
JUGNU 04 Dec 16:26:23 16:30:36 20° 193° (SSW) 16:34:49 437.505
ITAMSAT 1 04 Dec 16:29:05 16:30:34 11° 267° (W) 16:32:02 435.822/435.867
BEESAT 2 04 Dec 16:35:06 16:38:30 26° 249° (WSW) 16:41:51 435.950
KKS-1 04 Dec 16:40:44 16:45:13 75° 101° (E) 16:49:40 437.445
ITUPSAT 1 04 Dec 16:42:02 16:42:58 11° 295° (WNW) 16:43:53 437.325
AO-7 04 Dec 16:42:56 16:49:44 28° 262° (W) 16:56:37 29.400- 29.500
HORYU 2 04 Dec 16:47:55 16:52:06 40° 73° (ENE) 16:56:17 437.375
ISS 04 Dec 16:49:05 16:52:17 54° 316° (NW) 16:55:32 145.825
STARS 04 Dec 16:51:57 16:56:08 41° 99° (E) 17:00:17 437.465
GOMX 1 04 Dec 16:56:41 17:00:06 22° 69° (ENE) 17:03:42 467.674
LilacSat-2 04 Dec 17:02:28 17:03:32 11° 69° (ENE) 17:04:37 437.200
O/OREOS (USA 219) 04 Dec 17:07:44 17:11:55 34° 293° (WNW) 17:16:05 437.305
AIST 2 04 Dec 17:09:51 17:11:51 13° 52° (NE) 17:13:50 435.215
BRITE-PL 04 Dec 17:10:56 17:15:07 89° 256° (WSW) 17:19:32 437.365/2234.400
DOVE 4 04 Dec 17:16:59 17:19:41 15° 67° (ENE) 17:22:27 437.250
CUBESAT XI-V 04 Dec 17:31:58 17:36:38 89° 80° (E) 17:41:20 437.345
NOAA 18 04 Dec 17:41:09 17:45:43 27° 69° (ENE) 17:50:18 137.9125
CUTE-I 04 Dec 17:46:08 17:51:15 48° 73° (ENE) 17:56:24 437.470
SRMSAT 04 Dec 18:01:09 18:05:53 25° 188° (S) 18:10:35 437.500
Cubesat XI-IV 04 Dec 18:11:13 18:16:36 85° 76° (ENE) 18:22:00 437.490
NOAA 15 04 Dec 18:14:33 18:19:47 78° 257° (WSW) 18:25:02 137.62
RS-15 04 Dec 18:16:39 18:28:51 72° 248° (WSW) 18:40:33 29.354- 29.394
HORYU 2 04 Dec 18:26:27 18:28:43 14° 265° (W) 18:31:01 437.375
STARS 04 Dec 18:29:55 18:32:04 13° 292° (WNW) 18:34:11 437.465
Cosmos 2491 04 Dec 18:30:15 18:38:46 55° 81° (E) 18:47:14 435.465 / 435.565
LilacSat-2 04 Dec 18:33:50 18:37:25 37° 261° (W) 18:41:01 437.200
GOMX 1 04 Dec 18:34:22 18:38:01 25° 265° (W) 18:41:51 467.674
CINEMA 3 04 Dec 18:46:04 18:50:27 35° 73° (ENE) 18:54:58 145.822/145.860
AIST 2 04 Dec 18:46:29 18:50:32 47° 246° (WSW) 18:54:35 435.215
STRAND 1 04 Dec 18:51:21 18:54:43 18° 95° (E) 18:58:03 437.568
YUBILEINY 04 Dec 18:51:42 18:59:29 39° 87° (E) 19:07:18 435.215
DOVE 4 04 Dec 18:52:30 18:56:52 43° 262° (W) 19:01:33 437.250
HO-68 04 Dec 18:55:57 19:02:33 42° 69° (ENE) 19:09:10 435.675
Cosmos 2504 04 Dec 19:09:22 19:15:07 21° 82° (E) 19:21:06 435.465 / 435.565
CUBEBUG 2 04 Dec 19:16:50 19:20:00 18° 69° (ENE) 19:23:11 437.445
NOAA 18 04 Dec 19:21:21 19:26:11 31° 262° (W) 19:31:03 137.9125
CUTE 1.7 + AOD 2 04 Dec 19:22:56 19:27:01 50° 76° (ENE) 19:31:05 437.475
CUTE-I 04 Dec 19:28:11 19:31:27 16° 266° (W) 19:34:43 437.470
CANX-2 04 Dec 19:40:26 19:44:39 79° 258° (WSW) 19:48:52 2200.000
SRMSAT 04 Dec 19:51:21 19:54:28 15° 197° (SSW) 19:57:35 437.500
Oscar 11 04 Dec 19:54:19 19:56:27 14° 69° (ENE) 19:58:35 145.826/435.025
AAUSAT CUBESAT 2 04 Dec 19:54:50 19:58:37 38° 74° (ENE) 20:02:25 437.432
UWE-3 04 Dec 20:01:39 20:05:53 36° 74° (ENE) 20:10:07 435.000/436.395/437.385
SEEDS 04 Dec 20:09:26 20:13:33 61° 259° (W) 20:17:41 437.485
COMPASS 1 04 Dec 20:23:02 20:27:07 64° 259° (W) 20:31:14 437.405
CINEMA 3 04 Dec 20:24:12 20:27:36 19° 266° (W) 20:31:06 145.822/145.860
AIST 1 04 Dec 20:26:34 20:30:50 78° 277° (W) 20:35:10
Cosmos 2491 04 Dec 20:28:20 20:34:56 25° 276° (W) 20:41:33 435.465 / 435.565
STRAND 1 04 Dec 20:29:13 20:33:57 40° 288° (WNW) 20:38:41 437.568
RS-15 04 Dec 20:36:05 20:39:04 11° 264° (W) 20:42:03 29.354- 29.394
SO-50 04 Dec 20:39:01 20:43:48 76° 297° (WNW) 20:48:33 436.795
HO-68 04 Dec 20:44:14 20:50:15 29° 263° (W) 20:56:20 435.675
ZACube-1 04 Dec 20:46:08 20:50:41 71° 76° (ENE) 20:55:12 437.345
YUBILEINY 04 Dec 20:48:18 20:56:06 37° 283° (WNW) 21:04:00 435.215
CUBEBUG 2 04 Dec 20:51:56 20:56:17 36° 262° (W) 21:00:39 437.445
FUNcube-1 04 Dec 20:54:47 20:59:21 83° 77° (ENE) 21:03:53 145.935
HUMSAT D 04 Dec 20:55:42 20:57:13 12° 68° (ENE) 20:58:45 437.325/437.525
Cosmos 2504 04 Dec 20:59:34 21:07:35 63° 278° (W) 21:16:13 435.465 / 435.565
CUSAT 1 04 Dec 21:01:13 21:05:03 63° 82° (E) 21:10:09 437.405
DELFI C3 04 Dec 21:07:46 21:11:16 32° 74° (ENE) 21:14:47 145.870
PRISM 04 Dec 21:08:01 21:11:41 30° 98° (E) 21:15:21 437.425
Oscar 11 04 Dec 21:28:09 21:32:12 38° 261° (W) 21:36:14 145.826/435.025
DANDE 04 Dec 21:32:35 21:35:03 23° 82° (E) 21:37:57 436.750
AAUSAT CUBESAT 2 04 Dec 21:32:42 21:34:11 12° 267° (W) 21:35:39 437.432
PCSat 04 Dec 21:34:13 21:39:29 52° 62° (ENE) 21:44:44 145.827
UWE-3 04 Dec 21:39:20 21:42:21 17° 266° (W) 21:45:22 435.000/436.395/437.385
TIGRISAT 04 Dec 21:43:24 21:45:30 13° 94° (E) 21:47:36 435.000
ANTELSAT 04 Dec 21:44:07 21:46:35 15° 94° (E) 21:49:01 437.575/2403.000
CUBEBUG 1 04 Dec 22:27:56 22:28:33 10° 67° (ENE) 22:29:11 437.445
HUMSAT D 04 Dec 22:28:22 22:32:25 43° 261° (W) 22:36:25 437.325/437.525
PRISM 04 Dec 22:44:06 22:46:41 16° 291° (WNW) 22:49:17 437.425
DELFI C3 04 Dec 22:44:29 22:46:08 12° 266° (W) 22:47:46 145.870
UNISAT 6 04 Dec 22:47:29 22:51:53 84° 282° (WNW) 22:56:10 437.425
JAS-2 04 Dec 22:51:29 22:54:43 16° 96° (E) 22:58:03 435.910
SPROUT 04 Dec 23:16:46 23:19:32 17° 69° (ENE) 23:22:18 437.525
ESTCUBE 1 04 Dec 23:17:03 23:21:30 78° 78° (ENE) 23:25:58 437.505/2401.250
TIGRISAT 04 Dec 23:18:17 23:22:18 37° 287° (WNW) 23:26:15 435.000
PCSat 04 Dec 23:19:17 23:22:22 15° 256° (WSW) 23:25:27 145.827
ANTELSAT 04 Dec 23:19:24 23:23:21 33° 287° (WNW) 23:27:12 437.575/2403.000
ISS 04 Dec 23:22:22 23:24:02 13° 34° (NE) 23:25:41 145.825
AISAT 04 Dec 23:30:09 23:34:18 43° 74° (ENE) 23:38:30 437.250
GONETS M04 04 Dec 23:33:57 23:37:17 13° 79° (E) 23:40:37
NANOSAT C BR1 04 Dec 23:44:24 23:48:17 35° 99° (E) 23:52:07 145.865
QB50P2 04 Dec 23:48:37 23:52:42 47° 99° (E) 23:56:46 145.880/145.840
POLYITAN 1 04 Dec 23:49:14 23:53:18 44° 100° (E) 23:57:18 437.675
CUBEBUG 1 05 Dec 00:00:05 00:04:18 53° 260° (W) 00:08:34 437.445
QB50P1 05 Dec 00:02:38 00:06:51 68° 101° (ESE) 00:11:02 145.935-145.965
Cosmos 2499 05 Dec 00:05:02 00:11:49 28° 84° (E) 00:18:52 435.465 / 435.565
VELOX 1 05 Dec 00:06:56 00:11:18 69° 258° (WSW) 00:15:42 145.980
DUCHIFAT 1 05 Dec 00:07:08 00:11:19 64° 101° (E) 00:15:27 145.980
POPSAT HIP 1 05 Dec 00:24:02 00:28:13 65° 285° (WNW) 00:32:23 437.405
DX 1 05 Dec 00:25:04 00:29:24 83° 258° (WSW) 00:33:46 434.975-435.025
PHONESAT 2.4 05 Dec 00:26:00 00:28:38 63° 150° (SSE) 00:31:16 2401.200-2431.200
50 SAT 05 Dec 00:29:18 00:32:29 33° 261° (W) 00:35:41 437.505
JAS-2 05 Dec 00:35:01 00:39:55 43° 287° (WNW) 00:45:05 435.910
UKube-1 05 Dec 00:35:04 00:39:22 86° 258° (WSW) 00:43:42 .
TISAT 1 05 Dec 00:42:56 00:46:26 25° 72° (ENE) 00:49:56 437.305
SPROUT 05 Dec 00:51:22 00:55:09 30° 262° (W) 00:58:59 437.525
ISS 05 Dec 00:57:32 01:00:45 52° 229° (SW) 01:03:58 145.825
Oscar 19 05 Dec 01:00:37 01:04:19 20° 96° (E) 01:08:01 437.125/150
AISAT 05 Dec 01:09:10 01:10:54 12° 266° (W) 01:12:39 437.250
BUGSAT 1 05 Dec 01:10:01 01:14:08 58° 284° (WNW) 01:18:10 437.445
NANOSAT C BR1 05 Dec 01:21:24 01:23:38 14° 291° (WNW) 01:25:52 145.865
GONETS M04 05 Dec 01:24:03 01:32:48 89° 99° (E) 01:41:33
QB50P2 05 Dec 01:27:01 01:28:01 11° 293° (WNW) 01:29:01 145.880/145.840
POLYITAN 1 05 Dec 01:27:17 01:28:36 11° 293° (WNW) 01:29:56 437.675
SWISSCUBE 05 Dec 01:32:30 01:36:00 21° 69° (ENE) 01:39:30 437.505
BEESAT 05 Dec 01:36:44 01:40:12 20° 69° (ENE) 01:43:41 436.000
O/OREOS (USA 219) 05 Dec 01:45:31 01:47:38 13° 61° (ENE) 01:49:45 437.305
Cosmos 2499 05 Dec 01:56:18 02:04:21 51° 280° (W) 02:12:54 435.465 / 435.565
AUBIESAT-1 05 Dec 02:00:43 02:04:33 49° 70° (ENE) 02:08:41 437.475
PHONESAT 2.4 05 Dec 02:02:05 02:04:03 18° 343° (NNW) 02:06:02 2401.200-2431.200
ITUPSAT 1 05 Dec 02:02:23 02:06:48 38° 73° (ENE) 02:11:13 437.325
M-CUBED/EXP-1 PRIME 05 Dec 02:11:42 02:15:36 89° 58° (ENE) 02:19:51 437.505
TISAT 1 05 Dec 02:18:56 02:21:58 19° 264° (W) 02:25:01 437.305
AO-85 05 Dec 02:22:01 02:27:07 89° 118° (ESE) 02:31:52 145.980
Gurwin Techsat 1B 05 Dec 02:23:48 02:29:07 71° 102° (ESE) 02:34:24 435.225
Oscar 19 05 Dec 02:38:55 02:43:40 37° 288° (WNW) 02:48:25 437.125/150
MOZHAYETS 4 05 Dec 02:53:56 02:57:55 30° 72° (ENE) 03:01:53
AO-7 05 Dec 02:57:50 03:04:06 23° 97° (E) 03:10:18 29.400- 29.500
ITAMSAT 1 05 Dec 03:04:21 03:09:04 35° 99° (E) 03:13:44 435.822/435.867
SWISSCUBE 05 Dec 03:09:19 03:13:32 31° 262° (W) 03:17:46 437.505
BEESAT 05 Dec 03:13:29 03:17:43 31° 262° (W) 03:21:58 436.000
O/OREOS (USA 219) 05 Dec 03:22:58 03:27:12 43° 256° (WSW) 03:31:26 437.305
GONETS M04 05 Dec 03:26:30 03:30:37 14° 292° (WNW) 03:34:45
KKS-1 05 Dec 03:33:26 03:37:26 34° 73° (ENE) 03:41:28 437.445
PHONESAT 2.4 05 Dec 03:39:21 03:39:58 11° 360° (N) 03:40:35 2401.200-2431.200
ITUPSAT 1 05 Dec 03:41:43 03:44:41 16° 265° (W) 03:47:39 437.325
STARS 05 Dec 03:43:57 03:47:05 19° 70° (ENE) 03:50:14 437.465
Gurwin Techsat 1B 05 Dec 04:06:50 04:08:23 11° 296° (WNW) 04:09:56 435.225
BEESAT 3 05 Dec 04:18:56 04:20:49 13° 108° (ESE) 04:22:43 437.485
CUBESAT XI-V 05 Dec 04:29:46 04:34:06 44° 74° (ENE) 04:38:28 437.345
MOZHAYETS 4 05 Dec 04:31:43 04:35:01 19° 264° (W) 04:38:20
